• In Latvia
  • List of Countries
  • For 7 days
  • Water Temperature
  • Satellite Maps
  • Weather Map
  • Weather Widgets
  • user-avatar
    Login

    Hourly Weather Jewłach

    Today, 22 November, Wednesday

    Time Temperature Precipitation Wind Pressure Humidity
    00:00 +15°C° 0 mm 2 mps 750 mmHg 40%
    01:00 +15°C° 0 mm 2 mps 750 mmHg 40%
    02:00 +14°C° 0 mm 3 mps 750 mmHg 40%
    03:00 +14°C° 0 mm 3 mps 750 mmHg 40%
    04:00 +14°C° 0 mm 4 mps 750 mmHg 43%
    05:00 +13°C° 0 mm 5 mps 750 mmHg 45%
    06:00 +13°C° 0 mm 6 mps 750 mmHg 47%
    07:00 +14°C° 0 mm 7 mps 750 mmHg 47%
    08:00 +13°C° 0 mm 8 mps 751 mmHg 46%
    09:00 +15°C° 0 mm 9 mps 751 mmHg 45%
    10:00 +15°C° 0 mm 9 mps 751 mmHg 44%
    11:00 +15°C° 0 mm 9 mps 752 mmHg 42%
    12:00 +15°C° 0 mm 9 mps 752 mmHg 41%
    13:00 +15°C° 0 mm 8 mps 752 mmHg 41%
    14:00 +15°C° 0 mm 8 mps 753 mmHg 41%
    15:00 +15°C° 0 mm 8 mps 753 mmHg 40%
    16:00 +14°C° 0.1 mm 7 mps 754 mmHg 43%
    17:00 +12°C° 0.1 mm 7 mps 755 mmHg 46%
    18:00 +11°C° 0.1 mm 6 mps 756 mmHg 49%
    19:00 +11°C° 0.2 mm 6 mps 756 mmHg 50%
    20:00 +10°C° 0.2 mm 6 mps 757 mmHg 52%
    21:00 +9°C° 0.2 mm 6 mps 757 mmHg 54%
    22:00 +9°C° 0.3 mm 6 mps 757 mmHg 55%
    23:00 +9°C° 0.3 mm 5 mps 758 mmHg 55%

    Tomorrow, 23 November, Thursday

    Time Temperature Precipitation Wind Pressure Humidity
    00:00 +8°C° 0.3 mm 4 mps 758 mmHg 56%
    01:00 +8°C° 0.2 mm 4 mps 758 mmHg 57%
    02:00 +9°C° 0.2 mm 3 mps 759 mmHg 58%
    03:00 +9°C° 0.2 mm 2 mps 759 mmHg 59%
    04:00 +9°C° 0.2 mm 2 mps 759 mmHg 60%
    05:00 +8°C° 0.2 mm 2 mps 759 mmHg 61%
    06:00 +8°C° 0.2 mm 2 mps 760 mmHg 61%
    07:00 +8°C° 0.4 mm 2 mps 760 mmHg 61%
    08:00 +9°C° 0.4 mm 1 mps 760 mmHg 61%
    09:00 +9°C° 0.4 mm 1 mps 761 mmHg 60%
    10:00 +9°C° 0.2 mm 1 mps 761 mmHg 58%
    11:00 +10°C° 0.2 mm 1 mps 761 mmHg 56%
    12:00 +10°C° 0.2 mm 1 mps 760 mmHg 54%
    13:00 +10°C° 0 mm 1 mps 760 mmHg 52%
    14:00 +11°C° 0 mm 1 mps 760 mmHg 50%
    15:00 +11°C° 0 mm 1 mps 760 mmHg 48%
    16:00 +10°C° 0 mm 1 mps 761 mmHg 49%
    17:00 +10°C° 0 mm 1 mps 761 mmHg 51%
    18:00 +9°C° 0 mm 1 mps 762 mmHg 53%
    19:00 +9°C° 0 mm 1 mps 762 mmHg 52%
    20:00 +7°C° 0 mm 2 mps 762 mmHg 52%
    21:00 +7°C° 0 mm 2 mps 763 mmHg 52%
    22:00 +7°C° 0 mm 3 mps 763 mmHg 49%
    23:00 +7°C° 0 mm 3 mps 763 mmHg 46%

    Day after tomorrow, 24 November, Friday

    Time Temperature Precipitation Wind Pressure Humidity
    00:00 +5°C° 0 mm 4 mps 763 mmHg 42%
    01:00 +5°C° 0 mm 4 mps 764 mmHg 43%
    02:00 +5°C° 0 mm 4 mps 764 mmHg 43%
    03:00 +5°C° 0 mm 4 mps 764 mmHg 43%
    04:00 +5°C° 0 mm 4 mps 764 mmHg 43%
    05:00 +4°C° 0 mm 4 mps 764 mmHg 43%
    06:00 +4°C° 0 mm 4 mps 765 mmHg 43%
    07:00 +5°C° 0 mm 4 mps 765 mmHg 40%
    08:00 +5°C° 0 mm 5 mps 765 mmHg 38%
    09:00 +6°C° 0 mm 5 mps 765 mmHg 35%
    10:00 +6°C° 0 mm 5 mps 765 mmHg 34%
    11:00 +7°C° 0 mm 5 mps 765 mmHg 34%
    12:00 +7°C° 0 mm 5 mps 765 mmHg 33%
    13:00 +7°C° 0 mm 5 mps 765 mmHg 33%
    14:00 +7°C° 0 mm 4 mps 765 mmHg 33%
    15:00 +7°C° 0 mm 4 mps 765 mmHg 33%
    16:00 +7°C° 0 mm 4 mps 765 mmHg 36%
    17:00 +6°C° 0 mm 4 mps 765 mmHg 38%
    18:00 +6°C° 0 mm 4 mps 766 mmHg 40%
    19:00 +6°C° 0 mm 4 mps 766 mmHg 41%
    20:00 +5°C° 0 mm 4 mps 766 mmHg 42%
    21:00 +5°C° 0 mm 4 mps 767 mmHg 42%
    22:00 +5°C° 0 mm 4 mps 767 mmHg 42%
    23:00 +5°C° 0 mm 4 mps 767 mmHg 43%

    25 November, Saturday

    Time Temperature Precipitation Wind Pressure Humidity
    00:00 +4°C° 0 mm 4 mps 767 mmHg 43%
    01:00 +4°C° 0 mm 4 mps 767 mmHg 44%
    02:00 +3°C° 0 mm 5 mps 767 mmHg 45%
    03:00 +3°C° 0 mm 5 mps 768 mmHg 46%
    04:00 +3°C° 0 mm 5 mps 768 mmHg 47%
    05:00 +3°C° 0 mm 5 mps 769 mmHg 48%
    06:00 +3°C° 0 mm 5 mps 769 mmHg 49%
    07:00 +3°C° 0 mm 6 mps 769 mmHg 46%
    08:00 +4°C° 0 mm 6 mps 770 mmHg 43%
    09:00 +5°C° 0 mm 6 mps 770 mmHg 40%
    10:00 +7°C° 0 mm 6 mps 770 mmHg 38%
    11:00 +7°C° 0 mm 6 mps 770 mmHg 35%
    12:00 +8°C° 0 mm 6 mps 770 mmHg 32%
    13:00 +8°C° 0 mm 6 mps 770 mmHg 31%
    14:00 +8°C° 0 mm 5 mps 771 mmHg 31%
    15:00 +8°C° 0 mm 4 mps 771 mmHg 30%
    16:00 +7°C° 0 mm 4 mps 771 mmHg 33%
    17:00 +8°C° 0 mm 3 mps 772 mmHg 35%
    18:00 +7°C° 0 mm 2 mps 773 mmHg 37%
    19:00 +6°C° 0 mm 2 mps 773 mmHg 37%
    20:00 +6°C° 0 mm 2 mps 774 mmHg 38%
    21:00 +6°C° 0 mm 2 mps 774 mmHg 38%
    22:00 +5°C° 0 mm 2 mps 774 mmHg 37%
    23:00 +5°C° 0 mm 2 mps 774 mmHg 36%

    26 November, Sunday

    Time Temperature Precipitation Wind Pressure Humidity
    00:00 +4°C° 0 mm 2 mps 774 mmHg 36%
    01:00 +4°C° 0 mm 2 mps 774 mmHg 35%
    02:00 +3°C° 0 mm 2 mps 774 mmHg 34%
    03:00 +3°C° 0 mm 2 mps 774 mmHg 34%
    04:00 +3°C° 0 mm 2 mps 774 mmHg 33%
    05:00 +3°C° 0 mm 2 mps 774 mmHg 33%
    06:00 +2°C° 0 mm 2 mps 774 mmHg 33%
    07:00 +3°C° 0 mm 2 mps 774 mmHg 31%
    08:00 +5°C° 0 mm 1 mps 774 mmHg 29%
    09:00 +6°C° 0 mm 1 mps 774 mmHg 27%
    10:00 +7°C° 0 mm 1 mps 773 mmHg 26%
    11:00 +8°C° 0 mm 1 mps 772 mmHg 25%
    12:00 +9°C° 0 mm 1 mps 772 mmHg 25%
    13:00 +9°C° 0 mm 1 mps 771 mmHg 25%
    14:00 +9°C° 0 mm 1 mps 771 mmHg 26%
    15:00 +9°C° 0 mm 1 mps 771 mmHg 27%
    16:00 +8°C° 0 mm 1 mps 771 mmHg 29%
    17:00 +7°C° 0 mm 1 mps 772 mmHg 32%
    18:00 +6°C° 0 mm 1 mps 772 mmHg 35%
    19:00 +6°C° 0 mm 1 mps 772 mmHg 35%
    20:00 +6°C° 0 mm 1 mps 772 mmHg 36%
    21:00 +5°C° 0 mm 1 mps 772 mmHg 36%
    22:00 +5°C° 0 mm 1 mps 772 mmHg 37%
    23:00 +5°C° 0 mm 1 mps 772 mmHg 37%

    27 November, Monday

    Time Temperature Precipitation Wind Pressure Humidity
    00:00 +5°C° 0 mm 1 mps 771 mmHg 37%
    01:00 +4°C° 0 mm 1 mps 771 mmHg 37%
    02:00 +3°C° 0 mm 2 mps 771 mmHg 37%
    03:00 +3°C° 0 mm 2 mps 770 mmHg 36%
    04:00 +3°C° 0 mm 2 mps 770 mmHg 36%
    05:00 +3°C° 0 mm 2 mps 770 mmHg 36%
    06:00 +3°C° 0 mm 2 mps 770 mmHg 35%
    07:00 +4°C° 0 mm 2 mps 770 mmHg 33%
    08:00 +5°C° 0 mm 2 mps 770 mmHg 31%
    09:00 +7°C° 0 mm 1 mps 770 mmHg 29%
    10:00 +8°C° 0 mm 1 mps 769 mmHg 28%
    11:00 +9°C° 0 mm 1 mps 769 mmHg 27%
    12:00 +10°C° 0 mm 1 mps 768 mmHg 26%
    13:00 +10°C° 0 mm 1 mps 768 mmHg 26%
    14:00 +11°C° 0 mm 1 mps 768 mmHg 26%
    15:00 +11°C° 0 mm 1 mps 768 mmHg 26%
    16:00 +10°C° 0 mm 1 mps 768 mmHg 29%
    17:00 +8°C° 0 mm 1 mps 769 mmHg 32%
    18:00 +7°C° 0 mm 1 mps 769 mmHg 35%
    19:00 +7°C° 0 mm 1 mps 769 mmHg 35%
    20:00 +7°C° 0 mm 1 mps 769 mmHg 36%
    21:00 +6°C° 0 mm 1 mps 769 mmHg 36%
    22:00 +6°C° 0 mm 1 mps 769 mmHg 37%
    23:00 +6°C° 0 mm 1 mps 769 mmHg 37%
    Show more